Wind_Speed
78 80 79 79 78 78 78 77 75 73 72 71 68 66 64 62 61 61 61 61 62 62 61 60 60 60 60 60 61 60 59 58 56 55 54 53 52 52 50 47 47 48 53 59 57 50 48 46 45 47 48 46 40 37 42 47 44 43 45 47 50 54 58
76 79 80 79 78 78 77 76 74 72 71 69 66 64 61 59 59 60 60 61 61 61 60 59 58 57 58 60 60 60 58 56 54 54 53 52 51 51 49 47 46 46 49 56 57 51 47 44 43 45 47 46 41 36 40 45 44 42 44 46 49 53 56
73 77 81 80 78 77 76 75 73 72 70 67 64 61 59 58 58 58 59 60 60 59 59 58 57 56 57 59 60 60 58 55 54 53 52 51 50 50 49 47 45 44 46 51 55 52 47 44 42 43 45 45 41 36 38 43 43 41 42 44 48 52 55
72 75 79 80 79 77 76 74 73 71 69 66 62 60 58 57 57 57 59 60 59 58 58 57 56 55 57 59 60 59 56 54 53 53 51 50 50 49 48 47 45 44 44 47 52 52 48 43 41 42 43 43 41 36 37 42 43 41 41 43 47 51 54
72 74 77 79 79 77 75 74 72 70 68 64 61 59 58 57 56 57 58 59 58 58 57 56 55 55 56 58 59 58 55 54 53 53 51 49 49 49 48 47 46 44 43 44 47 50 48 43 40 41 41 41 40 37 35 40 42 41 41 43 46 50 53
72 73 75 78 78 77 75 73 71 70 67 64 61 59 59 58 56 57 58 58 57 57 56 55 54 55 56 57 58 57 55 54 54 52 50 49 48 48 48 47 46 44 43 43 44 47 47 44 40 40 40 39 39 37 35 39 42 41 40 42 45 49 53
72 74 75 76 77 76 74 73 71 69 67 64 61 59 59 58 57 58 58 57 57 56 55 54 54 54 55 57 58 56 54 54 53 51 50 48 48 48 47 47 46 44 42 41 43 44 46 44 39 38 39 38 38 38 36 38 41 40 40 42 45 48 52
72 74 75 76 76 75 73 71 70 68 66 64 62 59 59 59 58 58 59 58 56 55 54 53 53 54 55 57 57 55 53 53 51 50 49 48 47 47 47 46 46 44 41 40 41 43 44 42 37 36 38 38 37 37 36 37 40 40 40 42 44 47 51
73 74 75 75 75 73 72 70 68 67 66 64 61 60 59 59 58 58 59 58 56 55 53 52 52 53 55 56 56 54 52 51 50 48 47 47 47 46 46 46 46 44 41 39 39 41 43 40 35 33 37 37 36 37 36 36 39 40 40 42 44 47 51
74 74 74 74 74 72 70 69 68 66 65 62 60 59 59 59 58 58 58 58 56 54 52 51 51 53 54 55 54 52 51 50 48 46 46 46 45 45 45 46 46 45 43 40 39 39 41 40 35 31 35 37 35 36 36 36 38 40 40 41 44 46 50
74 74 73 73 72 70 69 68 67 65 63 61 60 59 58 58 58 57 57 57 56 53 51 50 51 53 54 54 52 51 50 48 46 45 45 44 43 42 41 42 43 44 44 42 40 38 38 40 36 31 33 37 36 36 37 36 37 40 41 41 43 45 49
74 73 72 72 70 69 68 67 66 65 63 60 59 58 57 57 57 57 57 56 55 53 51 50 51 52 53 52 50 50 49 47 45 44 43 43 41 40 39 38 39 41 42 43 41 39 37 37 36 32 31 36 37 36 37 37 37 39 41 42 42 44 48
73 72 71 71 69 67 66 66 65 64 62 60 58 57 56 57 57 57 56 55 53 51 50 50 51 52 52 50 48 48 47 46 45 43 42 41 39 38 37 36 36 38 40 40 40 39 37 36 36 34 31 34 37 37 37 38 37 39 41 42 42 44 47
70 70 70 70 68 66 64 64 64 64 62 59 58 57 56 58 57 56 54 53 51 50 49 50 51 52 50 47 46 46 45 45 45 43 42 40 37 35 34 34 35 37 38 38 36 35 35 35 36 34 32 32 35 37 37 38 38 38 41 42 42 43 46
68 68 68 68 67 65 63 63 62 62 61 59 58 57 57 58 58 55 52 50 49 48 49 49 51 51 48 46 45 44 44 44 44 43 42 39 36 33 32 32 34 36 37 36 34 32 32 34 35 34 32 31 32 34 36 37 38 38 40 41 42 44 46
66 66 66 66 65 63 62 62 60 60 59 59 58 58 58 58 57 55 51 48 47 47 48 48 50 50 47 44 43 43 42 43 44 43 41 38 35 32 30 30 32 34 35 34 33 31 30 31 32 32 32 31 31 32 33 35 37 37 39 40 42 43 45
64 64 64 63 62 61 61 61 59 58 58 58 57 58 59 58 56 54 50 47 46 46 46 48 49 48 45 43 42 42 42 43 43 42 40 38 35 32 30 30 31 32 32 32 32 31 30 31 31 30 30 30 30 30 30 33 35 36 38 39 40 42 45
62 62 61 61 60 60 60 60 58 57 56 56 57 58 59 57 54 52 49 47 46 45 45 48 48 46 43 42 41 40 41 41 41 40 38 37 35 32 30 30 32 32 30 29 29 30 31 31 31 29 28 28 28 28 28 30 33 34 36 38 39 41 43
60 59 59 58 58 58 58 58 57 55 55 56 56 57 58 55 52 50 47 46 44 43 45 48 46 43 41 41 39 39 40 40 39 38 36 35 34 32 30 30 31 32 30 27 26 27 29 31 32 32 29 27 26 26 26 28 30 32 34 36 38 40 42
58 57 57 56 56 57 57 57 55 54 54 55 55 56 56 53 50 47 46 44 42 41 45 47 44 41 39 39 38 38 38 38 37 36 36 35 33 31 30 30 30 30 30 28 26 25 27 30 32 32 31 28 26 25 25 26 28 29 32 34 37 39 41
55 55 54 54 55 55 55 55 54 53 53 54 54 54 53 51 47 44 44 42 39 41 44 45 41 39 38 37 36 37 37 35 35 35 35 34 32 31 30 30 29 29 28 27 27 26 28 30 31 31 30 28 26 25 24 25 26 27 30 32 36 39 41
53 52 52 52 53 53 53 53 53 52 51 52 52 51 50 47 44 42 41 39 38 41 44 42 39 37 36 35 35 36 35 33 33 34 34 33 31 30 29 29 28 27 27 26 27 28 29 29 29 29 28 26 24 24 24 25 25 26 28 31 35 39 41
51 50 49 50 51 51 51 51 51 50 49 50 50 47 46 44 41 39 38 37 39 42 42 39 37 35 34 34 34 34 33 32 32 33 33 32 31 30 29 28 27 26 25 26 27 28 28 28 27 27 27 25 23 23 23 24 25 25 26 29 33 38 40
47 46 47 49 49 49 49 49 49 47 47 47 46 44 42 41 39 37 36 37 40 42 39 36 35 33 32 33 33 32 31 31 31 32 32 31 30 29 28 27 25 25 25 25 27 27 26 26 25 24 25 24 23 22 22 24 24 24 26 28 32 37 40
43 43 45 47 47 46 46 46 45 44 43 43 42 40 39 38 36 34 34 37 41 40 36 34 33 32 31 31 31 30 30 30 31 31 31 30 29 28 27 26 24 23 24 25 26 26 25 24 23 22 22 23 22 21 22 23 24 24 25 27 31 36 40
41 41 43 44 44 44 43 42 41 40 39 39 39 38 36 35 34 33 35 38 39 37 34 32 31 30 30 30 29 28 29 29 29 30 29 29 28 27 26 25 23 22 23 24 25 25 24 23 22 20 20 21 21 21 21 22 23 23 24 26 30 35 39
40 40 41 41 41 40 39 38 37 36 36 36 36 35 33 33 33 34 36 38 36 34 32 30 29 28 28 28 27 27 28 28 28 29 29 28 27 25 25 24 22 21 21 22 23 23 22 21 20 19 19 19 20 20 20 21 23 23 24 26 29 33 38
37 37 38 38 37 37 35 33 32 32 33 34 33 32 31 31 32 34 36 36 33 31 30 28 27 26 26 26 26 26 27 27 27 28 28 27 26 25 24 23 21 20 20 21 22 22 21 20 19 18 18 18 18 19 19 20 22 22 23 25 28 32 37
34 34 34 34 33 32 30 29 29 30 30 31 30 29 29 30 32 34 34 32 30 29 28 26 25 25 24 24 24 25 25 26 27 27 27 26 25 24 23 22 20 20 20 20 21 22 22 21 20 19 17 17 17 18 19 20 21 22 23 25 27 31 35
29 30 31 30 29 28 27 26 27 28 28 29 28 28 28 30 32 32 31 29 28 27 25 24 24 23 23 23 23 24 24 25 26 27 26 25 24 23 22 21 20 20 20 20 20 21 22 21 21 19 18 17 17 17 18 19 20 21 22 24 27 30 33
25 26 27 26 25 25 24 24 25 27 27 27 27 27 29 30 30 29 29 27 26 25 23 23 22 21 21 22 22 23 24 25 25 26 25 24 24 23 22 21 20 21 20 20 19 20 21 21 20 19 18 17 16 16 17 18 20 21 22 23 26 29 31
21 22 22 21 21 21 22 23 24 26 26 26 27 27 27 27 27 27 27 25 24 23 22 21 20 19 20 21 21 22 23 24 25 25 25 24 23 22 21 21 21 21 21 20 19 19 20 20 20 19 18 17 16 16 17 18 19 21 22 23 26 28 31
17 17 16 17 18 19 21 22 23 24 25 26 26 25 24 24 25 25 24 23 22 21 20 19 18 18 19 20 21 22 23 24 25 25 24 23 22 22 21 21 21 21 20 20 19 19 20 20 20 18 17 17 16 15 16 17 18 20 22 23 25 28 31
13 13 14 16 18 19 20 21 22 24 25 25 23 22 22 23 23 23 22 21 20 19 18 17 17 17 18 19 20 21 23 24 24 24 24 23 22 21 20 20 21 21 20 19 19 19 19 20 20 19 17 17 16 15 16 17 18 20 22 23 24 27 30
10 11 13 15 18 19 20 21 22 23 22 21 20 20 21 21 21 21 20 19 18 17 16 16 16 16 17 18 19 21 23 24 24 24 23 23 22 21 20 20 20 20 20 20 20 20 20 20 20 20 18 17 16 16 16 17 18 19 21 23 24 27 30
10 11 14 16 18 18 19 19 20 19 19 19 19 20 20 20 19 19 18 16 16 15 15 14 15 16 17 18 19 21 22 23 24 24 23 22 22 21 21 20 20 20 20 20 21 22 22 21 21 20 19 17 16 16 16 16 18 19 21 23 25 26 29
Wind_Direction
280 280 280 280 280 280 280 281 281 281 282 282 283 284 284 284 283 284 285 286 288 290 292 294 295 297 298 297 295 294 294 294 296 297 296 295 293 292 292 292 292 292 291 290 290 289 288 286 283 281 279 277 272 264 259 258 252 246 239 233 228 226 225
279 280 281 280 280 280 281 281 282 282 282 282 283 283 283 282 282 284 286 286 288 290 293 295 297 299 299 297 296 294 294 297 298 297 296 295 293 293 293 294 293 293 292 290 290 290 288 286 283 280 278 277 273 264 259 257 253 246 240 233 228 226 224
278 279 280 280 280 280 280 281 281 282 282 282 283 282 282 282 282 284 285 287 289 292 294 297 299 300 300 298 296 295 296 299 299 297 296 295 294 295 295 295 295 294 293 290 289 290 289 287 284 280 277 276 272 265 258 257 253 247 241 235 229 226 224
276 276 277 279 280 280 280 281 281 282 282 283 283 283 282 282 283 284 285 287 290 293 295 298 300 301 300 299 297 296 298 300 299 297 296 295 295 296 297 297 296 295 293 290 289 289 289 287 284 280 276 275 272 266 259 256 254 248 242 236 230 226 224
274 274 275 276 278 279 280 281 281 282 282 283 284 283 283 283 284 284 286 288 291 294 296 299 302 302 301 299 297 297 299 300 299 298 297 296 297 298 298 298 297 295 293 290 289 289 289 287 284 280 277 274 272 267 260 256 254 248 242 237 231 227 224
271 272 273 274 276 277 278 279 281 281 283 284 284 284 283 284 285 286 287 290 292 295 298 301 303 302 301 298 297 298 300 300 299 298 297 297 298 299 299 298 297 297 295 292 289 289 288 288 285 281 277 274 271 267 261 255 254 249 243 238 232 228 225
270 270 271 272 274 275 277 278 279 280 282 283 284 284 284 285 286 287 288 291 294 297 300 302 303 302 300 298 296 298 299 299 299 298 297 298 300 300 301 300 299 297 295 292 290 288 287 286 284 280 277 274 271 267 262 256 253 249 243 238 233 228 225
268 269 270 271 272 274 275 276 278 279 281 282 283 284 284 285 286 287 289 292 295 298 301 302 303 301 299 296 296 297 298 298 298 298 298 299 301 302 301 300 298 296 294 292 290 289 287 284 282 280 277 274 270 267 262 256 253 249 244 238 233 228 225
267 268 269 270 271 273 274 275 276 277 279 281 283 283 284 285 286 287 290 293 296 298 301 302 302 300 297 295 295 297 298 298 298 298 299 301 302 303 303 301 299 297 295 294 292 290 288 285 283 282 278 274 270 267 263 257 253 249 244 239 233 228 225
266 266 267 269 270 271 273 274 275 276 278 280 281 282 283 284 286 288 290 293 296 298 300 301 301 298 295 294 295 297 297 297 297 298 299 301 303 304 304 302 301 299 298 296 293 291 290 288 285 284 280 276 271 268 263 258 253 250 245 240 234 228 225
264 265 266 268 269 270 272 273 275 276 278 279 280 281 282 284 286 289 291 293 296 299 300 300 299 296 293 294 296 297 297 296 297 299 300 301 302 302 302 301 301 300 299 298 295 292 291 290 287 284 281 277 273 269 264 259 253 250 245 240 235 229 225
263 264 266 267 268 270 271 272 274 276 278 278 279 280 282 284 286 289 291 293 296 298 299 299 297 294 292 294 296 297 297 297 297 298 300 301 302 302 301 299 298 299 299 298 296 293 292 291 290 287 281 277 274 270 265 260 254 249 246 241 236 230 225
261 263 264 266 267 268 270 271 273 275 277 279 279 281 282 284 286 288 291 294 296 297 298 298 295 293 292 295 297 297 297 297 298 299 300 301 302 302 301 299 299 298 297 295 294 294 294 293 291 289 282 275 272 269 265 260 255 249 246 242 237 230 225
261 262 263 265 266 268 269 270 272 275 277 279 280 282 283 284 286 289 291 294 296 296 297 296 293 292 293 296 297 297 298 298 298 300 301 301 303 303 302 301 300 297 294 291 292 294 296 295 292 289 282 274 269 266 263 259 255 249 245 242 237 231 225
261 262 263 264 266 267 268 270 271 274 276 279 280 282 283 284 287 290 292 294 296 296 295 294 292 292 294 296 298 298 298 298 299 300 301 302 304 304 303 303 301 297 294 291 290 292 295 294 290 288 283 275 268 263 259 257 253 249 245 241 237 232 225
261 262 263 264 265 266 268 270 272 273 275 277 279 281 282 283 286 290 292 295 295 294 293 292 291 291 294 297 298 298 298 298 299 301 302 303 305 305 305 304 302 298 296 294 294 294 295 293 289 286 282 276 269 262 256 253 251 248 244 240 236 232 226
261 262 263 263 264 265 267 269 271 272 273 275 276 278 280 283 286 289 293 295 294 293 292 291 290 292 295 297 298 298 298 298 299 301 303 305 307 308 308 307 303 298 296 297 298 299 299 296 291 286 282 277 272 264 256 251 249 246 243 239 234 231 226
261 262 263 263 264 264 265 267 270 271 272 273 274 276 279 283 286 289 293 295 293 292 291 289 289 292 295 296 297 297 297 297 298 300 303 306 308 310 311 308 303 297 295 297 300 303 303 301 295 289 283 277 272 267 258 251 247 244 241 238 233 230 225
261 262 262 262 263 264 265 266 269 270 271 271 272 274 278 282 286 290 292 293 292 291 289 287 288 292 294 295 296 295 295 296 298 301 304 307 309 312 313 309 303 299 296 297 300 304 306 303 298 293 287 280 273 268 260 253 248 243 240 236 232 229 225
261 262 262 262 262 263 264 266 268 269 269 270 271 274 278 282 287 290 291 292 291 290 287 286 289 292 293 294 294 293 294 296 299 303 306 308 311 314 314 310 304 300 299 298 301 306 307 303 295 290 287 283 277 270 263 256 249 243 239 234 231 229 224
262 261 261 260 261 262 263 265 267 268 268 269 271 274 278 283 287 289 290 291 290 287 284 285 289 291 292 292 292 292 294 297 301 304 306 308 313 316 314 310 305 302 301 303 306 310 309 302 293 287 284 281 277 272 265 259 252 244 239 233 229 228 224
263 261 260 260 260 261 262 264 266 267 268 269 272 275 279 283 287 289 290 291 288 284 283 285 289 290 291 292 292 293 295 300 303 305 306 309 314 315 313 310 307 305 305 307 310 310 306 299 292 286 283 281 277 273 266 260 254 245 238 231 227 226 224
264 262 260 259 259 260 261 263 265 267 269 270 273 277 280 284 288 289 290 289 285 282 283 286 288 290 291 292 292 294 298 301 304 305 307 310 314 315 313 311 309 307 309 311 310 308 303 297 291 286 284 282 278 273 267 261 256 246 238 231 226 225 224
266 263 260 259 259 260 261 263 266 268 269 271 275 279 282 285 288 290 290 286 282 281 284 286 288 289 291 291 292 295 299 302 303 305 307 311 314 314 312 312 311 311 312 311 308 305 302 297 291 286 285 283 279 274 267 262 256 247 238 231 226 225 224
268 263 260 259 260 261 262 264 266 269 271 273 276 280 284 287 290 291 288 282 281 282 285 286 287 289 290 291 293 296 300 302 303 305 308 312 314 314 313 313 313 313 312 310 307 306 303 299 292 286 283 282 280 274 266 261 256 248 239 232 226 224 223
269 264 262 261 261 262 263 265 268 270 272 275 278 282 285 289 291 290 284 280 281 283 285 285 287 288 289 291 294 297 300 301 303 305 309 312 313 314 314 313 313 313 313 310 308 306 304 300 293 286 282 281 278 273 266 260 255 248 240 233 228 224 223
270 266 264 263 263 264 265 267 270 272 274 276 279 284 288 290 290 285 280 279 281 283 283 284 286 288 289 292 295 297 299 300 303 307 310 312 313 313 313 313 313 313 311 307 303 303 303 301 295 288 283 280 277 272 265 259 254 248 240 234 229 225 222
272 269 267 266 266 267 269 271 273 275 276 278 282 287 289 288 285 280 278 279 281 281 282 284 286 288 290 292 294 296 298 301 305 308 311 312 313 314 313 313 313 314 313 311 308 308 309 307 301 293 285 280 277 271 265 258 253 247 239 233 229 225 221
273 271 270 270 271 272 274 276 278 278 280 282 285 287 286 283 280 278 278 279 279 280 282 284 286 288 290 292 294 296 298 302 306 309 311 313 314 315 315 315 318 320 319 317 315 316 315 312 306 298 288 281 276 271 264 258 252 246 239 233 229 225 221
275 273 272 273 275 277 280 282 283 282 283 284 284 283 280 278 276 276 277 277 278 279 281 283 285 287 290 291 293 296 299 304 308 310 312 313 315 317 318 320 323 324 321 318 318 318 317 313 307 300 290 281 276 270 263 256 252 246 239 233 229 226 221
276 274 274 275 278 281 284 286 285 283 282 281 279 276 275 275 275 275 275 276 277 279 281 283 284 287 289 291 293 297 301 306 309 311 313 314 316 318 321 324 326 326 322 320 321 321 318 314 308 301 292 282 274 269 262 255 250 246 239 233 229 226 222
275 273 275 277 280 283 285 284 282 280 277 274 272 271 272 273 272 272 274 275 277 278 280 282 284 286 289 291 294 299 304 308 310 311 313 315 317 320 324 327 329 327 324 322 323 322 320 315 309 302 294 283 273 267 261 254 249 245 239 233 228 225 222
272 274 277 279 280 280 279 277 275 271 268 267 267 269 270 269 269 270 273 274 275 278 279 282 284 286 289 292 295 301 306 308 310 312 313 316 319 322 326 329 329 326 323 322 323 325 324 318 311 304 296 286 275 267 261 254 248 243 239 233 227 224 222
271 275 277 276 274 271 269 266 264 263 262 264 265 265 265 265 267 269 271 272 274 277 279 281 283 286 289 293 298 303 307 309 310 312 314 317 320 324 327 330 328 325 323 323 325 326 326 322 315 308 300 289 277 267 260 254 248 242 239 235 228 223 221
264 266 266 264 261 260 258 257 257 258 259 260 260 261 262 264 266 267 268 270 274 275 277 280 283 286 290 295 301 305 307 309 311 313 315 318 322 325 328 329 328 325 324 326 327 328 327 324 317 309 302 293 281 269 259 253 248 242 238 235 230 224 220
250 250 251 252 253 254 254 254 254 254 254 255 256 259 261 263 264 265 267 270 272 274 276 280 283 287 292 298 303 306 307 309 312 314 316 320 323 326 329 329 328 326 327 328 330 329 327 324 318 310 303 294 283 270 259 252 247 242 237 235 231 225 220
Height
10101 10099 10098 10097 10096 10094 10093 10092 10092 10091 10090 10089 10088 10088 10086 10084 10081 10077 10075 10072 10069 10065 10062 10058 10054 10051 10046 10042 10038 10034 10032 10028 10025 10021 10017 10015 10013 10008 10007 10006 10001 9996 9985 9973 9973 9978 9977 9974 9973 9969 9967 9965 9966 9967 9965 9964 9966 9968 9971 9974 9977 9980 9984
10092 10089 10087 10086 10085 10084 10083 10082 10081 10081 10080 10079 10080 10079 10077 10075 10072 10069 10066 10063 10061 10057 10054 10050 10046 10043 10039 10033 10029 10025 10023 10020 10016 10013 10009 10007 10005 10001 9998 9997 9993 9988 9981 9970 9964 9967 9969 9967 9966 9963 9960 9958 9958 9960 9958 9957 9959 9961 9964 9967 9970 9973 9977
10083 10080 10076 10075 10075 10074 10073 10072 10072 10071 10071 10070 10071 10070 10068 10066 10064 10062 10059 10055 10052 10049 10045 10042 10038 10035 10030 10025 10020 10016 10013 10012 10008 10005 10003 9999 9996 9993 9989 9987 9985 9981 9976 9967 9959 9958 9960 9960 9959 9956 9953 9951 9951 9952 9952 9951 9952 9954 9957 9959 9963 9966 9970
10074 10071 10067 10065 10064 10063 10063 10063 10062 10062 10061 10061 10062 10061 10059 10058 10056 10054 10051 10047 10044 10041 10037 10034 10031 10027 10022 10016 10011 10007 10005 10003 10000 9997 9995 9992 9988 9985 9981 9977 9976 9973 9969 9963 9955 9951 9951 9953 9951 9949 9947 9944 9943 9945 9946 9944 9945 9947 9949 9952 9956 9959 9963
10063 10061 10058 10056 10054 10054 10054 10053 10053 10052 10052 10052 10052 10052 10050 10049 10048 10046 10043 10039 10036 10033 10029 10026 10023 10019 10014 10009 10003 10000 9997 9995 9992 9989 9987 9984 9980 9977 9973 9970 9967 9965 9962 9957 9951 9946 9943 9945 9945 9941 9939 9938 9937 9938 9939 9938 9938 9940 9943 9946 9949 9952 9957
10052 10051 10049 10046 10045 10045 10044 10044 10044 10043 10043 10043 10044 10043 10042 10040 10040 10037 10035 10032 10029 10026 10022 10019 10016 10012 10007 10001 9996 9993 9991 9988 9985 9982 9979 9976 9973 9969 9965 9962 9959 9957 9954 9950 9946 9941 9937 9938 9938 9935 9932 9932 9931 9931 9932 9932 9931 9933 9936 9939 9942 9946 9950
10041 10039 10038 10037 10036 10036 10035 10035 10035 10035 10034 10035 10035 10035 10034 10032 10031 10029 10027 10024 10021 10018 10015 10012 10009 10004 9999 9994 9989 9986 9985 9982 9978 9975 9972 9969 9965 9961 9958 9954 9951 9949 9947 9944 9940 9937 9932 9931 9931 9928 9925 9925 9925 9924 9925 9926 9925 9927 9929 9932 9935 9939 9944
10030 10028 10027 10027 10026 10026 10026 10027 10027 10026 10026 10026 10027 10027 10026 10024 10023 10021 10018 10016 10013 10010 10008 10005 10002 9997 9992 9987 9983 9981 9979 9976 9972 9968 9964 9961 9958 9954 9950 9947 9944 9942 9940 9938 9935 9931 9927 9925 9925 9922 9919 9919 9919 9918 9919 9919 9919 9921 9923 9925 9929 9933 9937
10018 10017 10017 10016 10016 10017 10017 10018 10019 10018 10018 10019 10020 10020 10019 10017 10015 10014 10011 10008 10005 10003 10001 9999 9995 9991 9986 9981 9977 9975 9972 9969 9966 9962 9958 9954 9951 9948 9943 9939 9936 9934 9933 9931 9929 9925 9921 9919 9918 9916 9912 9912 9913 9912 9913 9913 9913 9915 9917 9919 9922 9927 9931
10007 10007 10007 10006 10006 10008 10009 10010 10010 10010 10011 10012 10013 10012 10011 10010 10008 10006 10004 10000 9998 9996 9994 9992 9988 9983 9979 9975 9972 9969 9966 9963 9960 9956 9952 9949 9946 9942 9938 9933 9928 9926 9924 9924 9922 9920 9915 9912 9911 9910 9907 9905 9907 9907 9907 9907 9907 9909 9911 9913 9916 9921 9925
9997 9997 9997 9996 9997 9999 10000 10001 10001 10002 10003 10005 10005 10005 10004 10002 10001 9999 9996 9993 9991 9989 9987 9984 9981 9976 9973 9969 9966 9963 9960 9956 9953 9950 9946 9944 9942 9939 9935 9930 9924 9919 9917 9916 9915 9914 9910 9905 9903 9904 9902 9900 9900 9901 9900 9901 9902 9902 9905 9907 9910 9915 9920
9986 9987 9987 9987 9988 9990 9991 9992 9992 9993 9995 9996 9997 9998 9997 9995 9994 9992 9989 9987 9985 9983 9980 9977 9973 9969 9966 9963 9960 9956 9952 9949 9947 9944 9941 9939 9936 9934 9930 9926 9921 9916 9912 9909 9908 9907 9905 9900 9896 9897 9897 9895 9894 9894 9894 9895 9896 9896 9898 9901 9905 9910 9914
9977 9978 9979 9979 9980 9982 9983 9983 9983 9984 9986 9988 9989 9990 9990 9988 9987 9985 9983 9981 9979 9976 9973 9969 9965 9962 9959 9957 9954 9950 9945 9942 9939 9938 9936 9934 9932 9929 9925 9920 9916 9912 9909 9905 9902 9900 9898 9895 9891 9890 9891 9890 9889 9888 9888 9889 9890 9891 9892 9895 9899 9904 9908
9968 9970 9970 9970 9971 9973 9975 9975 9975 9976 9978 9980 9981 9982 9982 9980 9978 9978 9977 9975 9973 9969 9966 9962 9958 9954 9952 9951 9948 9943 9939 9936 9933 9931 9930 9928 9926 9923 9919 9915 9911 9907 9904 9902 9899 9895 9892 9889 9887 9884 9885 9885 9884 9883 9883 9883 9884 9885 9886 9889 9893 9897 9902
9959 9961 9961 9962 9963 9966 9967 9967 9968 9969 9971 9972 9973 9974 9974 9972 9970 9970 9971 9969 9967 9963 9959 9955 9951 9947 9946 9944 9941 9937 9933 9930 9927 9925 9924 9922 9920 9918 9914 9909 9905 9902 9899 9896 9894 9891 9887 9884 9882 9880 9879 9879 9879 9878 9877 9877 9878 9879 9880 9882 9886 9890 9895
9950 9951 9953 9954 9956 9958 9959 9959 9961 9963 9964 9965 9966 9966 9966 9965 9963 9963 9963 9963 9961 9956 9952 9948 9944 9941 9939 9938 9935 9931 9928 9924 9921 9920 9918 9916 9914 9911 9907 9904 9900 9897 9893 9890 9888 9885 9882 9879 9877 9875 9874 9874 9873 9873 9872 9872 9872 9873 9874 9876 9880 9884 9889
9941 9943 9945 9947 9949 9951 9952 9952 9954 9956 9957 9958 9959 9959 9957 9957 9957 9956 9956 9956 9953 9950 9946 9942 9938 9935 9933 9931 9928 9925 9922 9919 9916 9914 9912 9910 9907 9904 9901 9898 9895 9892 9889 9885 9882 9879 9877 9874 9872 9870 9869 9869 9868 9868 9867 9867 9867 9867 9868 9871 9874 9878 9883
9933 9935 9937 9939 9941 9944 9945 9945 9947 9949 9950 9951 9952 9951 9950 9950 9950 9950 9950 9949 9946 9943 9939 9935 9932 9929 9927 9925 9923 9920 9917 9914 9912 9910 9908 9905 9902 9899 9895 9892 9889 9887 9884 9881 9878 9875 9871 9869 9866 9865 9865 9864 9863 9863 9862 9862 9862 9862 9863 9866 9869 9873 9877
9926 9927 9929 9932 9934 9936 9938 9938 9940 9943 9943 9943 9944 9943 9942 9942 9943 9944 9943 9942 9940 9937 9933 9929 9927 9924 9922 9919 9917 9915 9912 9909 9907 9905 9903 9900 9897 9893 9890 9887 9884 9881 9878 9877 9874 9871 9868 9865 9862 9860 9860 9859 9859 9858 9857 9857 9857 9857 9859 9861 9864 9868 9872
9918 9920 9922 9924 9927 9929 9930 9932 9934 9936 9936 9935 9936 9936 9935 9935 9936 9938 9937 9935 9934 9931 9927 9923 9922 9920 9917 9915 9912 9910 9908 9905 9903 9900 9898 9895 9892 9888 9885 9883 9880 9876 9873 9871 9869 9867 9865 9862 9859 9857 9855 9854 9854 9853 9852 9852 9852 9853 9854 9856 9859 9863 9866
9911 9913 9915 9917 9920 9921 9923 9925 9927 9928 9929 9928 9928 9929 9928 9928 9930 9931 9930 9929 9927 9925 9921 9918 9916 9915 9912 9910 9908 9905 9902 9900 9898 9895 9893 9890 9887 9884 9881 9878 9875 9872 9868 9866 9863 9862 9860 9858 9856 9853 9851 9850 9849 9848 9848 9847 9847 9849 9850 9852 9855 9858 9861
9903 9906 9908 9910 9912 9914 9916 9918 9919 9921 9922 9921 9921 9922 9922 9922 9924 9925 9924 9923 9921 9918 9915 9913 9911 9909 9907 9905 9903 9900 9897 9895 9892 9890 9888 9885 9882 9880 9877 9874 9871 9867 9864 9862 9859 9857 9856 9854 9852 9849 9847 9846 9845 9844 9843 9843 9843 9844 9846 9848 9850 9853 9856
9897 9900 9902 9904 9905 9907 9910 9911 9912 9914 9915 9914 9914 9916 9916 9917 9918 9919 9918 9916 9914 9911 9909 9908 9906 9904 9902 9900 9897 9895 9892 9890 9888 9885 9883 9881 9878 9876 9873 9870 9867 9863 9860 9858 9856 9854 9852 9850 9848 9845 9843 9842 9841 9840 9839 9839 9839 9840 9842 9844 9846 9848 9851
9892 9895 9896 9897 9899 9901 9903 9904 9905 9907 9908 9908 9909 9910 9911 9912 9912 9913 9913 9910 9907 9905 9904 9903 9901 9899 9897 9895 9892 9890 9887 9885 9883 9881 9879 9876 9874 9872 9869 9866 9863 9859 9857 9855 9853 9851 9848 9846 9844 9842 9839 9838 9837 9836 9835 9835 9835 9837 9838 9840 9842 9844 9847
9887 9889 9890 9891 9893 9895 9897 9898 9899 9901 9902 9903 9903 9905 9906 9907 9907 9908 9907 9904 9901 9900 9899 9898 9896 9894 9892 9890 9887 9885 9883 9881 9879 9877 9875 9872 9870 9868 9865 9862 9859 9856 9853 9851 9849 9847 9844 9842 9840 9838 9836 9834 9833 9832 9832 9832 9832 9833 9834 9836 9838 9840 9843
9881 9883 9885 9886 9887 9889 9891 9892 9894 9895 9897 9898 9899 9900 9901 9902 9902 9902 9900 9898 9896 9895 9895 9893 9891 9889 9887 9885 9883 9881 9878 9877 9875 9873 9871 9869 9866 9864 9862 9859 9856 9853 9850 9848 9846 9843 9841 9838 9836 9834 9833 9831 9830 9829 9828 9828 9829 9829 9831 9832 9834 9836 9839
9876 9878 9879 9881 9882 9884 9886 9888 9889 9891 9892 9893 9894 9895 9896 9897 9897 9896 9894 9892 9891 9891 9889 9888 9886 9885 9882 9880 9878 9876 9875 9873 9871 9869 9867 9865 9863 9861 9858 9856 9853 9850 9847 9845 9842 9839 9837 9835 9832 9831 9829 9828 9827 9826 9825 9825 9825 9826 9827 9829 9831 9833 9836
9871 9873 9874 9876 9878 9880 9882 9884 9885 9887 9888 9889 9890 9891 9892 9892 9891 9889 9888 9887 9887 9886 9884 9883 9881 9880 9878 9876 9874 9873 9871 9869 9867 9865 9863 9862 9859 9857 9855 9852 9849 9846 9843 9840 9837 9835 9833 9831 9829 9827 9826 9825 9824 9823 9822 9822 9822 9823 9824 9826 9827 9830 9833
9867 9869 9870 9872 9874 9876 9878 9880 9881 9883 9884 9885 9886 9887 9887 9886 9885 9884 9882 9882 9882 9881 9879 9878 9876 9875 9873 9872 9870 9869 9867 9865 9863 9862 9860 9858 9856 9854 9851 9848 9845 9842 9839 9836 9834 9831 9829 9827 9825 9824 9823 9822 9821 9820 9820 9819 9819 9820 9821 9823 9824 9827 9830
9863 9864 9866 9868 9870 9873 9875 9877 9878 9879 9880 9881 9881 9882 9882 9881 9879 9878 9878 9878 9877 9876 9874 9873 9872 9871 9869 9868 9866 9865 9863 9861 9860 9858 9856 9854 9852 9850 9847 9844 9841 9838 9836 9833 9831 9828 9826 9824 9822 9821 9820 9819 9819 9818 9817 9817 9817 9817 9819 9820 9821 9823 9827
9859 9861 9862 9865 9867 9869 9871 9873 9874 9875 9876 9876 9876 9876 9876 9875 9874 9873 9873 9873 9872 9871 9870 9869 9868 9867 9865 9864 9862 9861 9859 9858 9856 9854 9853 9851 9849 9846 9843 9840 9837 9835 9832 9830 9827 9825 9823 9821 9819 9818 9817 9816 9816 9815 9815 9814 9814 9814 9816 9817 9819 9820 9824
9856 9858 9860 9862 9864 9866 9868 9870 9871 9871 9871 9871 9871 9870 9870 9870 9869 9869 9869 9868 9868 9866 9865 9865 9864 9863 9862 9860 9859 9857 9855 9854 9853 9851 9849 9847 9845 9842 9839 9836 9834 9831 9829 9827 9825 9822 9820 9818 9817 9815 9814 9813 9813 9813 9812 9812 9811 9812 9813 9814 9816 9818 9820
9853 9856 9858 9860 9862 9863 9865 9866 9866 9866 9866 9866 9865 9865 9865 9865 9865 9865 9865 9864 9863 9862 9861 9861 9860 9859 9858 9856 9855 9854 9852 9851 9849 9848 9846 9844 9841 9839 9836 9833 9830 9828 9826 9824 9822 9820 9818 9816 9814 9812 9811 9810 9810 9810 9810 9809 9809 9809 9810 9811 9813 9815 9817
9852 9854 9855 9856 9858 9859 9860 9861 9861 9861 9861 9860 9860 9861 9861 9862 9862 9861 9861 9860 9859 9858 9858 9857 9856 9855 9854 9853 9852 9850 9849 9848 9846 9845 9843 9840 9838 9835 9832 9830 9828 9826 9824 9821 9819 9817 9815 9813 9811 9810 9808 9807 9807 9807 9807 9807 9806 9807 9807 9808 9810 9812 9814
9849 9851 9851 9852 9853 9854 9856 9856 9856 9856 9856 9856 9856 9857 9858 9858 9858 9858 9857 9856 9856 9855 9855 9854 9853 9852 9851 9850 9848 9847 9846 9845 9843 9841 9839 9837 9834 9832 9829 9827 9825 9823 9821 9818 9816 9814 9812 9811 9809 9807 9806 9805 9804 9804 9804 9804 9804 9804 9804 9805 9807 9809 9812
9845 9847 9847 9848 9849 9850 9851 9851 9852 9852 9852 9853 9853 9854 9854 9855 9855 9854 9854 9853 9852 9852 9851 9850 9849 9848 9847 9846 9845 9844 9843 9842 9840 9838 9836 9834 9831 9829 9826 9824 9822 9820 9818 9815 9813 9811 9809 9808 9806 9805 9803 9802 9801 9801 9801 9801 9801 9801 9802 9803 9804 9806 9809